Voltar ao catálogo

SL-12 DEB

LostHEO
NORAD 35310·DEBRIS·🇷🇺 Russia

Lançado Apr 4, 1991 de Baikonur Cosmodrome

Loading…

Próximas Passagens (próximas 24 horas)

TLE

ObsoletoSource: Space-Track

Época: Jan 7, 2012, 07:12 UTC

1 35310U 91025AK  12007.30020772  .00000728  00000-0  57354-2 0  9993
2 35310 065.3940 126.5722 5525479 333.7595 352.5470 04.38191180 44535

Acompanhe SL-12 DEB em tempo real com AllMySat

Download on the App Store